Weather Roundup
Issued by NWS Springfield, MO

Home | Current Version | Previous Version | Text Only | Print | Product List | Glossary On
Versions: 1 2 3 4 5 6 7 8 9 10 11 12 13 14 15 16 17 18 19 20 21 22 23 24 25 26 27 28 29 30 31 32 33 34 35 36 37 38 39 40 41 42 43 44 45 46 47 48 49 50
000
NZUS99 KSGF 060457
HRRSGF

HOURLY WEATHER
NATIONAL WEATHER SERVICE SPRINGFIELD MO
1100 PM CST MON DEC 05 2016

......SGF CWA......

CITY           SKY/WX    TMP DP  RH WIND       PRES   REMARKS
SPRINGFIELD    CLOUDY    41  37  86 S8        29.73S
JOPLIN         CLOUDY    37  36  96 CALM      29.74S
WEST PLAINS    LGT RAIN  39  38  96 E5        29.75F FOG

......SURROUNDING SGF CWA......

CITY           SKY/WX    TMP DP  RH WIND       PRES   REMARKS
CHANUTE        CLEAR     30  29  96 CALM      29.76R FOG
PARSONS        CLOUDY    29  28  96 E3        29.76S FOG
COFFEYVILLE    PTCLDY    32  32 100 NW3       29.77R FOG
EMPORIA        CLEAR     34  33  96 CALM      29.76R FOG
HARRISON AR    RAIN      40  40 100 E3        29.74S FOG

......KANSAS AND MISSOURI......

CITY           SKY/WX    TMP DP  RH WIND       PRES   REMARKS
KANSAS CTY INT CLEAR     35  29  78 SE5       29.77R WCI  31
SEDALIA        PTCLDY    34  32  92 SE5       29.77S WCI  30
ST JOSEPH      MOCLDY    34  31  88 S3        29.77R
ST LOUIS       CLOUDY    40  34  79 E7        29.82F
WICHITA        CLEAR     36  35  96 CALM      29.75R
TOPEKA         CLEAR     34  30  85 CALM      29.78R
OLATHE         CLEAR     33  30  88 CALM      29.77R

......TENNESSEE......

CITY           SKY/WX    TMP DP  RH WIND       PRES   REMARKS
MEMPHIS        NOT AVBL
NASHVILLE      CLOUDY    48  46  93 VRB3      29.75F

......ARKANSAS.......

CITY           SKY/WX    TMP DP  RH WIND       PRES   REMARKS
FAYETTEVILLE   RAIN      44  44 100 CALM      29.72S
FT SMITH       LGT RAIN  45  43  93 E5        29.74R
LITTLE ROCK    CLOUDY    43  43 100 NE6       29.73R

......OKLAHOMA.......

CITY           SKY/WX    TMP DP  RH WIND       PRES   REMARKS
TULSA          CLOUDY    45  42  89 E3        29.73R
PONCA CITY     FOG       34  31  88 N3        29.74R VSB 3/4
MCALESTER      CLOUDY    47  43  86 SW6       29.74R
OKLAHOMA CITY  MOCLDY    41  40  96 SE6       29.71R

......IOWA............

CITY           SKY/WX    TMP DP  RH WIND       PRES   REMARKS
DES MOINES     NOT AVBL
QUAD CITIES    CLOUDY    34  30  85 SE13      29.87S WCI  25

......ILLINOIS........

CITY           SKY/WX    TMP DP  RH WIND       PRES   REMARKS
QUINCY         NOT AVBL
CHICAGO        CLOUDY    33  32  96 SE8       29.93F FOG     WCI  26



USA.gov is the U.S. government's official web portal to all federal, state and local government web resources and services.